Probability
5 5 5 5 4 1 0 0 0 0 0 0 0 0 0 0 0 0 0 0 0 0 0 1 2 2 1 0 1 1 1 0 1 2 3 3 1 0 0 1 2 3 3 3 1 0 0 0 0
5 6 7 6 2 0 0 0 0 0 0 0 0 0 0 0 0 0 0 0 0 0 0 1 2 2 1 1 2 2 1 1 0 1 2 2 2 1 0 0 2 3 3 3 2 1 0 0 0
6 7 7 4 1 0 0 0 0 0 0 0 0 0 0 0 0 0 0 0 0 0 0 1 2 2 1 2 3 3 3 1 0 0 1 1 2 1 0 0 1 2 2 3 2 1 0 0 0
7 8 6 2 0 0 0 0 0 0 0 0 0 0 0 0 0 0 0 0 0 0 0 1 3 2 1 1 3 4 3 2 1 0 0 1 2 2 1 0 1 1 1 1 1 1 0 0 0
8 8 5 1 0 0 0 0 0 0 0 0 0 0 0 0 0 0 0 0 0 0 1 2 3 2 1 0 1 2 3 2 1 0 0 0 1 1 1 0 0 0 0 0 0 0 0 0 0
9 7 4 1 0 0 0 0 0 0 0 0 0 0 0 0 0 0 0 0 0 0 1 2 3 2 1 1 1 1 1 1 1 0 0 0 0 0 0 0 0 0 0 0 0 0 0 0 0
7 5 3 1 0 0 0 0 0 0 0 0 0 0 0 0 0 0 0 0 0 0 1 2 3 2 2 2 2 1 1 0 0 0 0 0 0 0 0 0 0 0 0 0 0 0 0 0 0
4 4 2 1 0 0 0 0 0 1 1 0 0 0 0 0 0 0 0 0 0 0 0 1 2 2 3 3 3 1 0 0 0 0 0 0 0 0 0 0 0 0 0 0 0 1 1 1 0
3 3 2 1 0 0 0 0 0 1 1 1 1 1 0 0 0 0 0 0 0 0 0 0 1 1 2 3 2 1 0 0 1 1 0 0 0 0 0 0 0 0 0 0 0 1 2 2 1
2 2 1 0 0 0 0 0 0 1 1 2 2 2 1 0 0 0 0 0 0 0 0 0 0 0 1 1 2 1 0 0 1 2 2 1 0 0 0 0 0 0 0 0 0 1 1 1 0
1 1 1 0 0 0 0 0 0 0 0 2 3 3 2 1 0 0 0 0 0 0 0 0 0 0 0 0 1 1 0 0 1 1 3 3 1 1 2 1 1 0 0 0 0 1 1 0 1
0 0 0 0 0 0 1 1 1 0 1 2 3 4 3 2 1 0 0 0 0 0 0 0 0 0 1 1 1 0 0 0 0 0 1 2 2 3 3 3 2 1 1 1 1 1 1 0 1
0 0 0 0 0 0 1 2 1 0 1 2 4 4 3 3 2 1 0 0 0 0 0 0 0 1 2 2 2 1 1 1 0 0 0 0 1 2 4 4 4 3 2 1 1 1 1 1 1
0 0 0 0 0 0 1 1 0 0 1 2 3 2 2 3 2 1 0 0 0 0 0 0 0 1 2 3 3 3 2 2 1 1 0 0 0 1 2 4 4 4 4 2 1 0 1 1 2
0 0 0 0 0 0 0 0 0 0 0 1 1 1 1 2 2 1 0 0 0 0 0 0 0 1 2 3 3 3 3 3 2 1 0 0 0 0 0 2 3 5 6 5 1 0 0 1 2
0 0 0 0 0 0 0 0 0 1 0 0 0 0 0 1 1 1 0 0 0 0 0 0 0 1 2 3 3 3 3 3 3 2 0 0 0 0 0 0 1 2 5 5 2 1 1 0 1
0 0 0 0 0 0 0 0 1 1 1 1 1 0 0 0 1 1 1 0 0 1 1 2 1 1 2 3 3 4 3 4 5 3 1 0 0 0 0 0 0 0 2 3 3 2 2 1 0
0 0 0 0 0 0 0 1 2 1 1 3 4 2 0 0 1 1 1 0 1 2 3 3 3 3 3 4 4 4 4 5 6 4 2 2 2 1 0 0 0 0 1 3 3 3 3 2 1
0 0 0 0 0 0 0 1 3 2 2 4 4 3 1 1 2 1 1 1 2 4 5 4 4 5 6 5 4 4 4 5 5 3 2 3 3 2 1 1 1 1 2 3 3 3 3 3 2
0 0 0 0 0 0 0 1 3 3 3 2 2 2 1 1 2 2 2 2 3 5 5 6 6 6 6 5 5 5 6 5 3 1 2 3 4 3 2 2 2 2 1 2 3 3 3 3 3
0 0 0 0 0 0 0 1 3 4 4 2 1 1 1 1 3 3 3 3 3 4 4 6 7 8 8 7 7 7 7 5 2 1 2 3 3 3 3 3 3 3 2 2 3 4 4 3 3
0 0 0 0 0 0 0 1 2 4 5 5 4 2 1 1 3 4 4 3 3 3 3 5 9 12 13 12 10 9 7 4 2 1 2 2 3 3 3 3 4 4 3 3 4 4 4 4 4
0 0 0 0 0 0 0 0 2 4 6 6 6 3 1 1 3 4 4 4 3 3 3 6 10 15 17 16 13 10 7 4 2 2 3 3 3 4 4 4 4 4 4 4 3 4 4 5 5
1 1 0 0 0 0 0 0 1 3 5 6 6 4 2 2 3 5 6 6 5 4 4 6 11 14 16 15 13 11 8 5 4 3 3 3 4 5 6 6 6 5 4 3 3 4 4 4 5
0 0 0 0 0 0 1 1 1 3 4 5 6 4 3 3 4 5 7 8 7 5 4 5 8 11 12 13 13 12 10 7 3 2 2 2 3 6 7 7 6 6 5 4 5 5 4 4 6
0 0 0 0 0 0 0 1 2 3 4 5 6 5 4 4 4 5 6 8 8 7 5 5 7 8 9 11 12 12 10 5 2 1 1 1 3 6 8 8 8 8 8 7 8 7 6 6 9
0 0 0 0 0 0 0 1 2 4 4 5 6 5 3 2 4 5 5 6 8 8 7 7 9 11 11 10 10 11 9 5 2 1 1 2 4 6 8 10 11 12 12 11 11 10 9 9 10
0 0 0 0 0 0 0 1 3 4 5 5 5 5 3 2 4 6 5 5 6 8 8 9 12 16 15 13 11 9 8 5 3 2 3 5 7 9 11 12 14 15 15 14 13 11 10 10 10
0 0 0 0 0 0 0 1 4 5 5 5 5 5 3 3 6 6 5 5 6 8 10 11 14 16 16 14 12 10 7 5 4 5 6 8 11 13 14 14 14 15 14 13 12 11 10 10 10
0 0 0 0 0 0 0 1 4 5 5 5 6 6 4 4 6 7 6 6 6 8 11 14 14 13 13 14 13 11 8 6 6 7 9 11 14 16 16 14 13 14 13 12 11 10 9 10 10
Wind_Speed
11 9 5 5 5 3 9 8 7 7 7 7 6 5 7 8 7 7 5 5 5 7 9 10 8 9 9 9 9 9 9 9 9 9 9 9 9 9 9 9 8 8 8 8 8 8 7 7 7
8 5 6 6 1 7 10 8 8 9 7 5 5 5 7 8 8 7 6 5 6 7 8 9 9 8 8 9 9 9 9 8 8 8 8 8 8 8 8 8 8 7 7 7 7 7 7 7 7
6 6 5 1 6 9 10 8 7 8 6 4 5 6 7 7 6 5 6 7 7 8 8 11 8 8 8 8 8 8 8 7 7 7 7 8 8 7 7 7 7 7 7 6 6 6 6 6 6
5 6 5 2 10 10 8 6 5 6 6 5 5 7 8 7 5 7 8 7 8 8 7 12 8 8 8 8 8 8 7 7 7 6 6 6 6 6 6 6 6 6 6 6 6 6 5 6 6
5 5 2 7 10 9 7 6 4 5 6 6 5 8 9 7 7 9 8 7 7 7 7 10 8 8 8 8 7 7 6 6 6 5 5 5 5 5 5 5 5 5 5 5 5 5 5 5 5
5 3 3 8 10 7 7 5 4 6 7 6 5 7 8 7 7 8 8 7 7 7 7 9 10 8 8 7 6 6 6 5 5 5 5 5 5 4 4 5 5 4 4 4 5 5 5 5 5
4 2 6 8 8 8 7 5 4 6 6 5 4 7 8 7 7 7 7 7 7 6 6 6 8 8 8 8 6 5 4 4 4 4 4 4 5 5 4 4 5 4 4 4 4 5 5 5 5
4 2 5 7 7 8 6 5 5 5 6 5 2 5 8 8 7 8 8 7 6 6 5 5 5 6 6 7 7 5 3 3 3 3 4 4 5 6 5 5 4 4 4 4 4 4 5 5 5
5 1 6 8 7 7 6 5 6 5 7 5 5 7 9 11 9 8 7 6 6 5 4 4 4 4 4 5 7 5 4 3 3 4 5 4 3 4 5 3 3 3 3 4 4 5 5 6 8
3 4 8 7 6 5 5 5 5 5 6 6 8 9 11 10 9 8 7 6 6 5 4 3 3 3 3 2 3 2 2 3 1 1 2 2 1 1 1 5 3 3 4 5 5 5 7 9 7
2 5 5 5 5 4 4 5 4 3 5 6 8 10 11 10 8 7 6 6 5 5 4 4 3 3 2 2 2 1 0 1 1 1 1 1 1 1 1 1 3 4 6 5 6 7 5 5 4
1 4 3 4 3 3 4 4 4 4 6 7 8 10 10 9 7 6 6 5 5 4 4 3 3 3 1 1 1 1 1 1 1 1 1 1 1 0 0 1 1 2 2 2 3 2 3 4 4
2 3 4 3 3 3 4 4 4 6 6 7 8 9 9 8 7 6 5 5 5 4 3 3 3 3 2 1 1 1 1 0 1 1 0 1 1 1 1 1 1 2 2 2 3 2 3 3 4
2 2 2 2 4 4 4 5 4 6 7 8 8 8 8 7 7 6 6 5 5 4 3 3 3 4 3 2 2 1 1 1 0 0 1 1 1 1 1 1 2 1 1 1 2 2 2 3 2
1 1 2 3 3 3 3 5 5 7 7 7 7 7 7 6 6 5 5 5 4 4 4 3 3 3 3 3 2 2 1 1 0 0 0 1 2 1 2 1 2 1 1 1 2 2 2 3 3
5 4 2 4 2 2 5 4 7 8 8 7 6 6 6 6 6 5 5 4 4 4 4 3 2 3 3 2 2 1 0 0 0 0 0 0 1 2 2 2 1 1 1 1 1 2 2 2 2
5 2 2 3 3 2 4 2 7 7 7 7 6 6 6 7 6 5 5 5 4 4 3 3 2 2 3 3 2 2 1 0 0 0 1 1 1 2 2 2 2 2 2 2 2 0 2 2 1
3 3 2 1 2 3 4 1 5 7 6 6 6 6 6 6 6 6 5 5 5 4 4 4 3 3 3 3 2 2 1 1 1 0 1 1 1 1 2 1 1 3 2 2 1 2 2 2 2
6 6 4 2 1 4 4 2 4 6 7 6 6 6 5 6 6 6 6 5 5 5 4 4 3 3 3 2 2 2 2 1 1 0 1 1 1 1 2 2 1 2 2 2 2 2 2 2 2
7 6 3 0 0 4 3 3 4 6 7 6 6 6 6 6 7 7 7 6 6 5 4 4 4 3 3 2 2 1 1 1 1 0 1 0 1 2 1 2 2 1 1 1 2 2 3 2 1
7 7 4 3 2 5 5 5 5 6 7 7 7 7 7 7 8 8 7 6 6 6 5 4 4 4 3 3 2 2 2 1 1 1 1 0 1 1 2 2 3 2 2 1 1 2 2 2 1
6 3 4 5 6 3 5 3 4 6 8 9 9 8 8 8 8 8 8 7 7 6 6 5 4 4 3 3 3 3 2 2 1 1 1 1 0 1 1 1 2 2 2 1 2 0 2 2 2
3 2 4 6 7 6 5 6 3 5 6 8 9 9 8 8 9 8 8 7 7 7 6 6 5 4 4 3 3 3 2 2 1 1 1 1 0 1 1 1 1 1 1 1 2 1 2 1 2
4 5 6 8 8 7 3 6 1 3 3 5 7 8 8 8 9 8 8 7 7 7 6 6 5 5 4 4 3 3 2 2 1 1 1 2 1 0 1 1 1 1 1 1 1 1 1 2 2
9 8 6 6 6 3 2 5 1 2 2 3 5 7 8 8 9 9 9 8 8 7 7 6 6 5 5 5 4 3 3 3 3 3 1 2 1 0 0 1 1 1 1 1 2 1 2 1 2
9 10 7 6 5 2 4 4 2 3 2 3 4 5 7 9 9 9 9 9 8 8 7 6 6 6 5 5 4 3 3 2 2 2 2 1 1 1 1 1 1 1 1 1 1 2 1 1 2
7 8 7 8 8 7 2 2 3 4 5 5 6 6 7 8 9 9 9 9 8 8 7 7 6 5 5 5 4 3 3 2 1 1 2 1 1 1 1 1 1 1 1 2 2 1 2 2 2
8 6 6 7 6 7 4 4 1 5 6 6 6 6 7 8 8 8 8 8 8 8 7 7 6 5 5 5 4 3 3 3 2 2 1 1 1 1 1 1 1 1 1 1 2 1 1 2 1
8 8 7 6 7 8 6 1 3 2 4 6 7 6 7 8 8 8 7 8 8 8 8 7 6 6 5 5 4 3 3 3 3 2 2 1 1 1 1 1 1 1 1 1 1 3 2 2 2
9 10 9 8 7 8 8 1 5 2 3 5 6 6 6 7 7 7 8 8 8 8 7 7 6 6 5 5 5 4 4 3 3 2 2 1 1 1 1 1 1 1 1 2 2 2 2 2 2
Wind_Direction
178 184 209 233 228 97 68 67 67 72 65 60 56 51 51 40 24 62 81 93 105 115 115 122 117 120 123 124 124 122 123 124 127 131 134 138 142 142 143 143 142 142 143 143 142 139 140 142 142
176 184 227 238 286 77 72 65 65 61 74 82 71 67 65 64 56 83 100 103 116 116 119 116 118 122 125 127 128 126 128 130 132 134 137 140 143 146 145 146 147 148 149 146 144 143 146 148 149
182 222 256 259 57 61 69 68 72 81 83 74 70 55 48 61 77 89 101 122 119 113 115 109 123 126 129 130 131 131 133 135 135 139 140 142 146 148 149 151 152 152 153 153 152 153 156 159 160
210 223 230 77 71 65 69 72 85 98 88 70 76 81 76 59 67 96 113 120 115 116 116 109 121 121 123 125 127 131 134 135 133 136 140 141 143 147 151 155 156 158 159 161 163 163 169 173 174
239 249 136 84 74 73 70 67 79 83 78 78 81 89 87 75 88 109 121 119 114 112 111 113 118 118 119 121 125 129 130 130 133 136 140 141 143 149 156 159 157 159 165 168 172 173 179 186 190
240 239 69 73 76 78 77 73 86 86 88 90 93 96 90 104 112 119 125 122 114 112 114 117 126 121 119 118 122 126 130 135 139 143 147 153 160 165 169 171 169 171 178 180 180 185 196 194 201
291 24 60 69 79 81 69 69 73 86 87 77 86 96 109 118 118 125 123 122 117 114 115 119 130 132 132 125 123 123 129 136 144 150 154 160 170 175 174 177 183 187 193 196 195 194 197 201 209
299 304 74 71 72 77 84 86 79 81 87 85 73 94 115 126 132 131 124 122 117 116 117 117 120 125 137 135 129 126 130 135 142 151 160 168 177 179 179 187 180 192 202 206 206 202 204 207 212
266 308 58 52 57 81 99 99 91 96 103 96 77 77 103 129 138 135 129 124 117 114 114 116 117 119 125 124 127 146 150 150 169 164 167 194 194 181 179 157 148 184 203 207 212 215 215 216 209
277 42 49 40 46 79 94 98 111 129 116 114 108 102 119 136 144 142 136 134 128 126 124 115 107 106 114 113 118 142 161 138 171 109 148 177 157 221 210 129 176 205 215 212 215 221 221 226 214
5 40 47 58 63 90 106 104 113 122 106 111 128 132 140 145 149 147 137 134 129 134 128 124 119 117 119 116 133 118 94 108 149 113 140 161 211 194 224 186 183 204 213 219 200 213 226 227 226
68 59 42 56 78 108 103 106 97 71 75 102 123 137 146 151 151 149 141 136 132 132 131 121 122 124 116 93 119 146 143 119 103 107 277 185 205 253 235 252 243 228 223 221 240 230 230 241 234
83 62 59 79 95 104 116 115 100 95 103 116 127 139 150 153 152 150 141 139 139 134 134 129 137 140 151 157 246 143 146 157 114 69 71 326 279 274 283 285 271 262 258 218 231 243 237 237 229
44 44 60 106 114 123 124 120 125 110 126 133 141 150 153 154 156 155 156 152 152 147 146 148 164 156 176 178 187 190 188 140 100 106 79 302 307 318 292 273 279 275 276 288 263 248 244 240 243
208 186 143 126 136 136 171 135 124 134 150 148 151 153 157 161 160 162 160 162 161 157 153 163 166 162 177 189 198 192 200 153 154 124 102 287 291 295 287 272 268 290 270 251 254 256 249 233 226
221 223 152 118 156 172 244 102 118 153 164 158 158 158 168 169 172 169 170 170 170 163 156 167 171 162 168 175 204 201 224 104 120 196 185 280 305 295 284 281 282 283 266 255 240 254 255 247 241
210 274 30 111 161 204 245 99 129 166 173 165 166 167 175 172 177 173 175 172 173 169 162 164 171 177 180 175 188 185 168 305 300 318 323 329 291 289 285 300 323 285 269 265 270 227 271 265 258
322 319 319 7 133 236 247 122 144 174 188 177 171 173 180 181 177 172 170 167 167 167 164 164 172 182 192 185 190 183 180 204 257 307 348 337 322 317 292 271 304 286 276 270 291 283 269 274 268
298 295 305 358 40 255 254 228 173 181 196 190 183 180 183 185 169 165 167 168 165 163 164 171 179 179 192 192 206 188 184 188 206 223 21 336 316 316 303 309 293 281 281 293 281 275 248 249 254
265 267 273 141 183 267 266 249 191 190 198 200 193 188 184 177 168 169 170 170 168 166 171 174 180 185 195 191 207 200 177 189 175 186 116 299 311 301 280 306 295 299 291 286 288 285 292 280 239
255 267 282 289 233 234 252 217 186 179 196 198 201 196 188 183 178 173 175 177 173 170 178 176 175 180 193 194 184 163 163 181 175 182 164 189 313 331 340 333 322 320 300 303 278 276 276 283 252
256 270 263 249 251 243 267 280 167 176 192 198 198 196 190 181 178 174 174 177 175 173 173 170 169 172 178 191 194 200 198 196 198 218 133 181 240 317 330 326 318 313 311 314 277 306 285 281 278
278 269 249 255 263 265 240 272 143 182 200 194 193 192 189 178 174 173 173 172 171 169 167 161 162 166 171 184 185 210 212 218 202 192 167 258 208 282 312 313 311 308 306 327 331 351 298 289 299
193 209 222 235 248 257 263 277 233 167 189 182 178 185 184 176 171 171 169 166 168 164 166 162 160 167 171 180 184 201 206 224 227 228 231 240 224 244 306 283 301 298 325 339 296 297 270 292 302
220 235 239 235 231 249 184 262 338 94 156 179 171 173 175 175 174 173 172 170 170 168 167 165 164 169 173 180 189 201 214 216 222 247 232 271 269 234 304 295 283 293 302 294 295 283 305 289 288
228 251 268 287 296 283 191 256 85 111 133 159 163 162 168 174 175 175 172 171 170 171 169 168 170 171 170 176 184 195 214 229 228 247 281 270 297 341 8 310 273 280 281 269 269 277 277 282 275
227 240 275 278 276 280 255 216 174 172 171 165 160 159 165 171 173 175 171 171 170 169 168 168 168 169 171 173 176 182 201 227 230 218 242 257 303 302 295 272 259 249 262 276 264 282 285 281 274
267 261 247 262 280 282 268 255 202 172 177 169 166 163 160 166 170 171 170 170 167 166 163 165 163 165 171 170 180 175 185 194 207 223 244 316 324 336 309 276 274 274 261 257 263 263 272 272 274
204 222 246 266 279 283 288 324 75 163 178 177 171 162 160 165 167 166 167 166 165 167 163 164 163 165 168 169 172 169 175 182 192 195 216 231 261 275 278 295 297 287 287 280 279 289 288 283 290
244 242 237 248 255 264 281 309 94 121 165 165 161 154 156 159 162 165 164 164 168 171 167 165 165 168 168 164 167 166 170 180 195 189 209 220 232 249 262 288 298 300 308 304 290 290 300 294 293